TimeEDT,TemperatureF,Dew PointF,Humidity,Sea Level PressureIn,VisibilityMPH,Wind Direction,Wind SpeedMPH,Gust SpeedMPH,PrecipitationIn,Events,Conditions,WindDirDegrees,DateUTC
12:53 AM,73.0,68.0,84,30.09,10.0,ENE,5.8,-,N/A,,Clear,60,2012-10-11 04:53:00
1:53 AM,72.0,66.0,81,30.09,10.0,NE,4.6,-,N/A,,Clear,50,2012-10-11 05:53:00
2:53 AM,71.1,66.0,84,30.08,10.0,ENE,5.8,-,N/A,,Clear,60,2012-10-11 06:53:00
3:53 AM,70.0,64.9,84,30.07,10.0,ENE,6.9,-,N/A,,Clear,60,2012-10-11 07:53:00
4:53 AM,69.1,64.9,87,30.07,10.0,ENE,5.8,-,N/A,,Clear,60,2012-10-11 08:53:00
5:53 AM,68.0,64.9,90,30.09,10.0,ENE,4.6,-,N/A,,Clear,60,2012-10-11 09:53:00
6:53 AM,68.0,64.9,90,30.11,9.0,ENE,4.6,-,N/A,,Clear,60,2012-10-11 10:53:00
7:53 AM,68.0,66.0,93,30.12,7.0,NE,4.6,-,N/A,,Clear,50,2012-10-11 11:53:00
8:53 AM,71.1,66.9,87,30.13,10.0,ENE,8.1,-,N/A,,Clear,70,2012-10-11 12:53:00
9:53 AM,75.9,66.0,71,30.15,10.0,ENE,12.7,-,N/A,,Clear,60,2012-10-11 13:53:00
10:53 AM,79.0,64.9,62,30.15,10.0,ENE,12.7,-,N/A,,Clear,70,2012-10-11 14:53:00
11:53 AM,81.0,66.0,60,30.15,10.0,East,9.2,-,N/A,,Clear,90,2012-10-11 15:53:00
12:53 PM,82.9,64.0,53,30.13,10.0,ENE,10.4,-,N/A,,Clear,70,2012-10-11 16:53:00
1:53 PM,84.9,63.0,48,30.12,10.0,East,6.9,-,N/A,,Clear,100,2012-10-11 17:53:00
2:53 PM,86.0,64.9,49,30.10,10.0,ENE,8.1,-,N/A,,Clear,60,2012-10-11 18:53:00
3:53 PM,87.1,63.0,44,30.09,10.0,ENE,9.2,-,N/A,,Clear,70,2012-10-11 19:53:00
4:53 PM,86.0,64.0,48,30.09,10.0,NE,6.9,-,N/A,,Clear,50,2012-10-11 20:53:00
7:53 PM,79.0,64.0,60,30.11,10.0,NE,3.5,-,N/A,,Clear,40,2012-10-11 23:53:00
8:53 PM,78.1,64.9,64,30.12,10.0,ENE,6.9,-,N/A,,Partly Cloudy,70,2012-10-12 00:53:00
9:53 PM,75.9,66.0,71,30.13,10.0,East,8.1,-,N/A,,Clear,80,2012-10-12 01:53:00
11:53 PM,73.0,66.0,79,30.14,10.0,East,8.1,-,N/A,,Clear,80,2012-10-12 03:53:00